Location: Argonnex
(45.9500°N, 6.1333°E)
Time: 04:58:06
(UTC+00:00)

YUNHAI 2 4 - Visible Passes

Search period start: 01 March 2024 00:00
Search period end: 11 March 2024 00:00
Orbit: 787 x 808 km, 50.0° (Epoch: 29 February)

Date Brightness Start Highest point End Pass type
(mag) Time Alt. Az. Time Alt. Az. Time Alt. Az.
05 Mar ? 05:22:56 10° S 05:26:56 21° SE 05:30:58 10° E visible
06 Mar ? 04:53:34 10° S 04:57:13 18° SE 05:00:53 10° E visible
07 Mar ? 04:24:18 10° SSE 04:27:30 16° SE 04:30:43 10° E visible
08 Mar ? 03:55:10 10° SSE 03:57:47 14° SE 04:00:25 10° E visible
09 Mar ? 03:26:18 10° SE 03:28:05 12° SE 03:29:52 10° ESE visible
09 Mar ? 05:07:13 10° SW 05:12:32 48° SE 05:17:52 10° ENE visible
10 Mar ? 04:37:32 10° SSW 04:42:44 43° SE 04:47:59 10° ENE visible
